Volver al catálogo

STARLINK-34093

ActivoComunicacionesVLEO
NORAD 64015·PAYLOAD·🇺🇸 United States

Lanzado May 14, 2025 desde Cape Canaveral Space Force Station

Loading…

Próximos Pases (próximas 24 horas)

TLE

ActualizadoSource: CelesTrak SupGP

Época: Sep 15, 2026, 02:36 UTC

1 64015C 25101X   26258.10881944  .00015916  00000+0  57642-3 0  2589
2 64015  43.0038   8.0313 0001526 267.0174 199.6889 15.27574456    19

Sigue STARLINK-34093 en tiempo real con AllMySat

Download on the App Store